Location: Feanwâldsterwâl
(53.2233°N, 5.9718°E)
Time: 15:03:41
(UTC+00:00)

Daily predictions for brighter satellites

Satellite Brightness Start Highest point End
(mag) Time Altitude Azimuth Time Altitude Azimuth Time Altitude Azimuth
Cosmos 1346 Rocket 3.4 20:53:51 10° N 20:57:36 43° ENE 21:01:17 10° SE
ATLAS 2AS CENTAUR R/B 2.8 20:53:24 10° NW 21:00:22 77° NE 21:07:03 10° SE
Cosmos 1674 4.0 20:58:22 10° SW 21:01:38 38° WNW 21:04:54 10° N
Meteor 1-22 Rocket 4.3 20:56:04 10° NNW 21:01:39 87° W 21:07:26 10° S
Cosmos 1758 3.3 21:04:53 10° N 21:08:47 70° ENE 21:12:41 10° SSE
Ariane Rocket 3.4 21:04:22 10° S 21:09:24 64° WSW 21:14:30 10° NNW
Meteor 1-4 Rocket 4.2 21:10:06 10° ESE 21:11:47 14° E 21:13:28 10° NE
Cosmos 1356 Rocket 4.0 21:09:52 10° SSE 21:13:48 41° E 21:17:46 10° NNE
COSMOS 2406 3.7 21:12:19 10° SW 21:18:02 66° NW 21:23:47 10° NNE
SPOT 3 Rocket 4.0 21:13:18 10° S 21:18:22 59° WSW 21:23:31 10° NNW
Cosmos 1850 Rocket 4.4 21:14:49 10° S 21:19:44 43° ESE 21:24:39 10° NE
Meteor 1-13 Rocket 4.5 21:14:49 10° SSW 21:20:37 77° WNW 21:26:20 10° NNE
Cosmos 1707 Rocket 3.9 21:16:37 10° S 21:20:54 50° E 21:25:13 10° NNE
Cosmos 1980 Rocket 4.5 21:17:26 10° WNW 21:20:55 17° W 21:24:23 10° SW
SL-27 R/B 3.5 21:19:33 12° SSE 21:21:20 20° ESE 21:23:28 10° NE
S3M 4.4 21:15:17 10° NNW 21:21:38 67° W 21:27:53 10° S
ARIANE 5 R/B 3.6 21:17:42 10° SE 21:21:39 36° ENE 21:25:39 10° N
Cosmos 2322 Rocket 2.3 21:16:11 10° NNW 21:21:53 79° WSW 21:27:28 11° SSE
Spot 1 4.3 21:18:30 10° NNE 21:22:54 62° ESE 21:27:31 10° S
Genesis I 4.3 21:26:30 10° WSW 21:29:53 43° NW 21:33:21 10° NE
Landsat 5 3.4 21:26:25 10° NNE 21:30:21 68° ESE 21:34:25 10° S
Cosmos 1655 Rocket 4.1 21:24:27 10° S 21:30:51 79° E 21:37:16 10° NNE
SJ 16-02 2.4 21:28:53 11° SSE 21:32:13 27° E 21:35:51 10° NE
Cosmos 1741 Rocket 4.2 21:33:05 10° S 21:38:14 57° ESE 21:43:27 10° NNE
USA 281 3.3 21:32:45 11° SE 21:39:13 79° ENE 21:45:49 10° NNW
COSMOS 2428 3.7 21:34:37 10° NNW 21:40:00 41° NE 21:45:23 10° ESE
Cosmos 1733 Rocket 3.2 21:35:37 10° NNW 21:40:01 75° W 21:44:16 11° S
Cosmos 2266 Rocket 4.4 21:34:19 10° SSW 21:40:38 69° WNW 21:47:03 10° N
Cosmos 1400 Rocket 3.1 21:36:51 10° SSW 21:40:43 64° WNW 21:44:33 10° N
GP-B 4.1 21:37:16 10° NNE 21:41:18 34° E 21:44:46 13° SE
MetOp-A 4.3 21:37:28 10° S 21:42:38 67° WSW 21:47:54 10° NNW
Okean 3 3.6 21:39:26 11° S 21:43:13 55° E 21:47:18 10° NNE
Terra 3.5 21:39:47 10° SSW 21:43:48 27° W 21:47:51 10° NW
Cosmos 1814 Rocket 4.1 21:39:57 10° NNW 21:45:16 86° ENE 21:50:00 13° SSE
Cosmos 968 Rocket 3.8 21:41:21 10° S 21:46:16 50° ESE 21:51:18 10° NE
SL-4 R/B 1.9 21:43:43 10° W 21:47:37 71° S 21:51:47 10° E
Cosmos 2228 Rocket 3.3 21:45:26 10° SSW 21:49:59 81° W 21:54:36 10° N
Cosmos 2219 Rocket 2.3 21:44:56 10° NNW 21:50:38 79° ENE 21:55:47 13° SE
Cosmos 1908 Rocket 3.9 21:47:04 10° N 21:51:22 53° ENE 21:54:53 14° SSE
Cosmos 1315 Rocket 3.5 21:51:04 15° SSE 21:54:04 39° E 21:57:49 10° NNE
ATLAS CENTAUR R/B 1.5 21:52:14 10° SSW 21:55:26 37° SE 21:58:49 10° ENE
Cosmos 1953 2.3 21:54:04 10° N 21:57:55 65° ENE 22:00:51 16° SSE
Cosmos 1455 2.1 21:57:40 10° N 22:01:09 61° ENE 22:03:41 17° SSE
H-2A R/B 3.0 21:59:30 14° SE 22:03:00 51° ENE 22:07:10 10° N
USA 234 3.3 21:58:39 10° ENE 22:05:14 87° NNW 22:11:48 10° WSW
Cosmos 1242 Rocket 3.4 22:04:20 17° SE 22:05:32 22° E 22:07:46 10° NE
Spot 4 4.3 22:03:33 14° SE 22:07:33 52° ENE 22:12:15 10° N
CZ-2C R/B 3.7 22:03:34 10° NNE 22:07:57 60° ESE 22:11:36 15° S
Okean 1-7 3.1 22:04:58 15° S 22:08:30 63° E 22:12:48 10° NNE
BREEZE-M DEB (TANK) 3.9 22:06:50 10° WSW 22:08:33 17° SSW 22:09:09 17° S
Cosmos 2360 Rocket 2.9 22:08:08 10° NW 22:13:32 45° WSW 22:18:06 14° S
ALOS 2 3.4 22:11:53 13° SE 22:15:26 43° ENE 22:19:36 10° N
Cosmos 1300 Rocket 4.3 22:11:58 10° N 22:16:06 43° ENE 22:19:20 15° SE
RESURS DK-1 4.2 22:15:06 10° WNW 22:18:11 21° WSW 22:21:10 10° SSW
Cosmos 2333 Rocket 2.9 22:13:08 10° NW 22:18:35 45° WSW 22:23:08 14° S
SL-16 R/B 3.9 22:16:30 10° NW 22:20:47 22° WSW 22:25:02 10° SSW
H-2A R/B 4.3 22:19:18 10° ENE 22:21:06 12° E 22:22:52 10° ESE
EXPRESS MD2 2.4 22:25:21 10° WSW 22:27:25 34° S 22:27:53 29° SE
SL-08 R/B 4.4 22:25:46 14° S 22:31:12 84° E 22:37:20 10° NNE
BREEZE-M DEB (TANK) 3.7 22:17:17 10° WSW 22:32:15 66° S 22:36:13 10° E
NOSS 5 (C) 4.2 22:29:28 10° NW 22:32:43 85° NE 22:35:00 18° SE
USA 129 3.8 22:33:29 10° ENE 22:33:54 11° ENE 22:33:54 11° ENE
Aureole 3 4.3 22:30:58 10° SSW 22:34:43 49° WNW 22:39:25 10° N
Cosmos 1238 4.3 22:32:49 10° N 22:35:52 72° E 22:37:52 22° SSE
Cosmos 1703 Rocket 3.6 22:32:44 17° S 22:36:09 78° E 22:40:37 10° NNE
Cosmos 1833 4.2 22:30:57 10° SSW 22:36:36 87° ESE 22:42:16 10° NNE
SL-16 R/B 4.4 22:32:08 10° NNW 22:36:40 23° NNE 22:41:11 10° E
NOSS 0 Rocket 4.2 22:31:11 10° NNW 22:37:26 68° NE 22:43:21 11° SE
Meteor 1-4 Rocket 3.3 22:41:49 12° SW 22:44:19 37° WNW 22:47:11 10° N
Cosmos 2322 3.7 22:39:28 10° NW 22:45:11 75° WSW 22:49:30 18° SSE
Cosmos 1932 4.5 22:39:11 10° SSW 22:45:26 65° SE 22:51:39 10° NE
Cosmos 2237 Rocket 3.0 22:40:52 10° NNW 22:46:24 50° NE 22:51:54 10° SE
BlueWalker 3 3.7 22:50:03 15° SE 22:50:03 15° SE 22:51:57 10° E
ATLAS 2AS CENTAUR R/B 3.6 22:44:47 10° NW 22:50:47 34° WSW 22:55:16 16° S
Cosmos 405 Rocket 4.0 22:49:49 10° N 22:53:12 31° ENE 22:55:58 14° SE
SL-27 R/B 4.0 22:51:47 10° WSW 22:54:10 25° WNW 22:56:36 10° N
Cosmos 2227 Rocket 4.2 22:54:20 10° ESE 22:56:45 13° E 22:59:11 10° ENE
ARIANE 5 R/B 3.8 22:54:58 14° SSW 22:58:06 32° W 23:02:00 10° NNW
Orbus 7S? 4.1 22:55:15 10° WNW 22:58:17 39° N 23:00:51 10° ENE
Cosmos 1980 4.1 22:53:32 10° NNW 22:59:10 61° NE 23:04:39 11° SE
PSLV R/B 4.3 22:55:34 10° N 22:59:32 58° WNW 23:02:50 14° SSW
Okean 2 4.4 23:00:22 11° SW 23:03:57 39° WNW 23:07:46 10° N
Cosmos 2322 Rocket 4.2 23:01:38 10° WNW 23:05:02 16° W 23:08:26 10° SW
Cosmos 1570 Rocket 4.4 23:00:30 10° NNW 23:05:42 53° WSW 23:09:22 19° S
PSLV R/B 4.2 23:02:25 10° NNE 23:06:31 42° E 23:08:58 21° SSE
Meteor 2-5 Rocket 4.4 23:03:32 18° SSE 23:07:43 47° E 23:13:18 10° NNE
Cosmos 1703 3.7 23:06:48 22° SSE 23:08:48 44° E 23:12:20 10° NNE
SJ 16-02 2.3 23:06:15 10° SW 23:10:23 44° WNW 23:14:33 10° NNE
Cosmos 1745 Rocket 4.1 23:05:11 16° SSW 23:10:25 83° WNW 23:16:50 10° N
Cosmos 1241 Rocket 4.4 23:05:19 10° SW 23:11:31 88° SE 23:17:50 10° NE
COSMOS 2455 3.5 23:08:59 19° S 23:12:47 39° ESE 23:18:20 10° NE
Cosmos 2297 Rocket 3.2 23:13:10 18° SSE 23:16:30 31° ESE 23:21:25 10° NE
Nadezhda 1 Rocket 4.5 23:10:45 10° NNW 23:16:53 53° W 23:21:42 16° SSW
Cosmos 2181 Rocket 4.2 23:11:04 10° N 23:17:17 65° ENE 23:22:13 16° SSE
GP-B 4.4 23:14:30 10° NNW 23:18:27 33° WNW 23:22:05 12° SW
Okean 1 Rocket 4.3 23:19:03 10° N 23:23:02 34° ENE 23:26:38 12° SE
Cosmos 1408 2.1 23:22:14 26° SSW 23:23:43 69° WNW 23:26:43 10° N
USA 281 4.5 23:19:37 13° SSW 23:24:20 28° WSW 23:29:52 10° NW
COSMOS 2428 3.1 23:18:56 10° NW 23:24:24 49° WSW 23:28:13 19° S
SL-4 R/B 2.1 23:22:17 10° W 23:26:15 55° SSW 23:30:27 10° ESE
GEOS 3 Rocket 4.3 23:23:43 10° ENE 23:28:30 36° ESE 23:31:28 20° S
ATLAS CENTAUR R/B 2.6 23:29:48 10° WSW 23:33:07 36° NW 23:36:33 10° NE
Cosmos 2219 Rocket 3.7 23:29:40 10° NW 23:34:00 23° WSW 23:37:28 13° SW
Cosmos 1242 Rocket 4.1 23:35:32 11° WSW 23:37:32 20° WNW 23:39:42 10° NNW
H-2A R/B 4.2 23:35:29 13° SW 23:38:12 23° W 23:41:37 10° NW
Cosmos 1892 3.6 23:38:13 20° SE 23:40:05 34° E 23:43:18 10° NNE
Cosmos 371 Rocket 3.4 23:38:59 21° S 23:42:11 66° ESE 23:46:59 10° NNE
BREEZE-M DEB (TANK) 4.2 23:39:21 10° W 23:43:07 61° S 23:55:53 10° ESE
USA 129 3.8 23:42:29 10° NNW 23:43:37 13° NW 23:44:00 13° WNW
Cosmos 773 Rocket 4.1 23:41:17 10° NNW 23:46:20 60° WSW 23:49:51 20° S
Cosmos 2151 Rocket 3.5 23:42:40 10° N 23:47:07 88° E 23:50:04 21° S
NOSS 8 (E) 4.4 23:45:42 22° SSW 23:47:51 59° SE 23:50:52 10° NE
USA 234 3.7 23:41:39 10° ENE 23:48:07 65° N 23:54:35 10° W
ALOS 2 4.0 23:49:16 16° SW 23:51:55 28° W 23:55:43 10° NW
GENESIS II 4.0 23:49:40 16° SW 23:52:28 86° NW 23:56:08 10° NE
Cosmos 2263 Rocket 4.3 23:51:37 10° SE 23:54:24 14° E 23:57:12 10° ENE
Okean 2 Rocket 3.1 23:49:57 10° NNW 23:54:27 87° W 23:57:29 20° S
